星链-37255(STARLINK-37255)

导读

STARLINK-37255(NORAD编号68554)是SpaceX星链(Starlink)互联网卫星星座中的一颗卫星,属于第二代星链卫星(Starlink Gen2),该批卫星主要用于拓展全球卫星互联网覆盖范围,为偏远地区、移动载体等提供低延迟宽带网络服务。 该卫星由SpaceX在2025年后通过可复用猎鹰9火箭发射入轨,运行在近地轨道(LEO),遵循空间碎片管理规则,具备自主离轨再入大气层能力,是星链星座持续扩容过程中部署的卫星单元,支撑全球卫星互联网服务的容量与覆盖升级。

基本信息
目录编号:
68554
目录名称:
STARLINK-37255
国际标识:
2026-070N
轨道中心:
EARTH
卫星名称:
星链-37255
卫星全名:
星链-37255(STARLINK-37255)
卫星状态:
在轨 (已飞行162 天)
发射日期:
2026-04-02 UTC
国别 :
美国 (US)
星等 :
--
轨道信息
数据来源 国际轨道数据 AOE轨道数据
星历时间 2026-09-09T15:57:54+0800
1天前
查看轨道信息
2026-09-05T23:00:00+0800
5天前
查看轨道信息
半长轴 6840.838km 6840.88km
偏心率 0.0002661 0.0001294
轨道倾角 53.155° 53.156°
近地点辐角 91.243° 77.855°
升交点赤经 225.862° 243.194°
平近点角 268.888° 314.792°
近地点 460.88km 461.857km
远地点 464.522km 463.629km
周期 93.848分钟 93.849分钟
每日圈数 15.34401 15.343868
详细信息
固有亮度:
5
最大亮度:
2.5
卫星平台:
Starlink V1.0
覆盖范围:
全球
运营商:
太空探索技术公司
运营商所在国:
美国
制造商(研发单位):
太空探索技术公司
制造商所在国:
美国
使用方式:
暂无
卫星简介
Starlink 计划是 SpaceX 推出的全球卫星互联网项目,通过发射低轨道卫星,为全球尤其是偏远地区提供高速、低延迟的互联网服务。自 2019 年起,Starlink 已部署数千颗卫星,旨在缩小全球数字鸿沟,推动互联网普及。该项目还为军事、航空等行业提供通信支持,带来广泛经济效益。
2D轨道图
3D轨道图
轨道高度分析图
轨道倾角分析图
轨道综合分析图
查看轨道综合分析图
交会数据列表
事件ID 空间交会对象 最接近时刻(TCA) 交会距离 交会风险概率(CRP) 交会风险指数(CRI) 操作
CDM_260911-034004-579406-855424
2026-09-11T
03:40:08+0000
0.399 km
远距离
3.240455E-4 高风险 0.85
CDM_260912-121606-003506-855421
2026-09-12T
12:16:42+0000
0.601 km
远距离
8.486911E-5 中风险 0.74
CDM_260912-042706-002206-855421
2026-09-12T
04:27:24+0000
0.877 km
远距离
2.556831E-5 中风险 0.63
CDM_260913-053805-739306-855421
2026-09-13T
05:38:12+0000
0.967 km
远距离
1.707657E-5 中风险 0.6
CDM_260912-134205-174506-855422
2026-09-12T
13:42:02+0000
0.869 km
远距离
1.319868E-5 中风险 0.57
CDM_260911-220406-855406-924721
2026-09-11T
22:04:30+0000
1.121 km
极远距离
4.939248E-6 低风险 0.49
CDM_260911-181706-002206-855421
2026-09-11T
18:17:45+0000
1.514 km
极远距离
4.01414E-6 低风险 0.47
CDM_260912-134006-827406-855421
2026-09-12T
13:40:25+0000
1.438 km
极远距离
3.48446E-6 低风险 0.46
CDM_260912-221606-827406-855421
2026-09-12T
22:16:16+0000
1.497 km
极远距离
3.079E-6 低风险 0.45
CDM_260912-120606-827406-855421
2026-09-12T
12:06:38+0000
1.525 km
极远距离
2.904111E-6 低风险 0.44
与全量物体交会距离演化趋势
与全量物体交会风险概率演化趋势